K5BOU Weather Reports


Display with metric or nautical units.
time (UTC)temp
F
wind
direction
speed
MPH
gust
MPH
rain 1hr
in
rain 24hr
in
rain mn
in
humidity
%
barometer
mb
20260901222353 90 182 0.0 1.0 0.00 0.00 0.00 65 1011.0
20260901221848 90 173 0.0 1.0 0.00 0.00 0.00 65 1010.9
20260901221344 90 175 0.0 0.0 0.00 0.00 0.00 66 1011.2
20260901220844 90 130 0.0 2.0 0.00 0.00 0.00 65 1011.0
20260901220342 90 166 0.0 2.0 0.00 0.00 0.00 65 1011.1
20260901215842 90 123 2.0 5.0 0.00 0.00 0.00 64 1011.0
20260901215341 90 171 0.0 2.0 0.00 0.00 0.00 66 1011.2
20260901214839 90 143 0.0 2.0 0.00 0.00 0.00 65 1011.5
20260901214339 91 137 1.0 5.0 0.00 0.00 0.00 64 1011.4
20260901213839 91 90 2.0 5.0 0.00 0.00 0.00 65 1011.5
20260901213333 91 161 0.0 3.0 0.00 0.00 0.00 65 1011.7
20260901212828 91 171 0.0 1.0 0.00 0.00 0.00 66 1011.7
20260901212324 91 153 1.0 5.0 0.00 0.00 0.00 66 1011.4
20260901211819 92 73 1.0 2.0 0.00 0.00 0.00 65 1011.4
20260901211315 92 154 0.0 2.0 0.00 0.00 0.00 64 1011.2
20260901210810 92 102 0.0 5.0 0.00 0.00 0.00 65 1011.3
20260901210307 93 161 1.0 2.0 0.00 0.00 0.00 64 1011.2
20260901205802 93 187 0.0 6.0 0.00 0.00 0.00 65 1011.4
20260901205306 93 171 0.0 5.0 0.00 0.00 0.00 65 1011.2
20260901204757 93 126 1.0 3.0 0.00 0.00 0.00 65 1011.3
20260901204254 94 104 2.0 6.0 0.00 0.00 0.00 64 1011.3
20260901203754 94 130 0.0 3.0 0.00 0.00 0.00 64 1011.5
20260901203254 93 146 1.0 2.0 0.00 0.00 0.00 64 1011.5
20260901202748 94 114 1.0 5.0 0.00 0.00 0.00 64 1011.5
20260901202243 93 156 1.0 2.0 0.00 0.00 0.00 65 1011.7
20260901201739 94 189 0.0 1.0 0.00 0.00 0.00 64 1011.7
20260901201238 94 162 0.0 6.0 0.00 0.00 0.00 65 1011.6
20260901200738 94 96 2.0 2.0 0.00 0.00 0.00 64 1011.8
20260901200234 94 154 1.0 3.0 0.00 0.00 0.00 64 1012.1
20260901195732 95 198 1.0 1.0 0.00 0.00 0.00 63 1012.1
20260901195226 95 127 1.0 5.0 0.00 0.00 0.00 63 1012.2
20260901194722 94 212 2.0 2.0 0.00 0.00 0.00 63 1012.1
20260901194216 95 322 4.0 6.0 0.00 0.00 0.00 63 1012.2
20260901193713 94 160 1.0 2.0 0.00 0.00 0.00 64 1012.1
20260901193206 95 172 1.0 2.0 0.00 0.00 0.00 65 1012.3
20260901192706 95 208 0.0 1.0 0.00 0.00 0.00 64 1012.3
20260901192201 95 178 1.0 3.0 0.00 0.00 0.00 67 1012.3
20260901191657 95 73 1.0 3.0 0.00 0.00 0.00 64 1012.4
20260901191154 95 217 1.0 7.0 0.00 0.00 0.00 66 1012.3
20260901190649 94 164 0.0 2.0 0.00 0.00 0.00 65 1012.3
20260901190148 94 144 0.0 3.0 0.00 0.00 0.00 65 1012.6
20260901185647 92 182 1.0 5.0 0.00 0.00 0.00 67 1012.7
20260901185145 93 139 0.0 2.0 0.00 0.00 0.00 67 1012.6
20260901184641 92 163 0.0 1.0 0.00 0.00 0.00 66 1012.6
20260901184131 92 135 0.0 5.0 0.00 0.00 0.00 67 1012.7
20260901183626 93 331 4.0 6.0 0.00 0.00 0.00 65 1012.9
20260901183121 93 197 1.0 1.0 0.00 0.00 0.00 66 1012.8
20260901182617 92 168 0.0 2.0 0.00 0.00 0.00 67 1013.2
20260901182116 94 7 0.0 3.0 0.00 0.00 0.00 66 1013.0
20260901181611 93 100 0.0 1.0 0.00 0.00 0.00 68 1013.0
20260901181110 91 305 3.0 3.0 0.00 0.00 0.00 69 1013.0
20260901180604 91 308 4.0 6.0 0.00 0.00 0.00 70 1013.2
20260901180058 92 116 0.0 1.0 0.00 0.00 0.00 72 1013.1
20260901175552 91 54 1.0 2.0 0.00 0.00 0.00 72 1013.5
20260901175052 91 159 0.0 3.0 0.00 0.00 0.00 73 1013.3
20260901174548 91 323 4.0 6.0 0.00 0.00 0.00 73 1013.5
20260901174044 90 154 0.0 6.0 0.00 0.00 0.00 75 1013.7
20260901173538 91 50 1.0 3.0 0.00 0.00 0.00 74 1014.0
20260901173034 90 165 0.0 5.0 0.00 0.00 0.00 76 1014.0
20260901172529 89 157 0.0 2.0 0.00 0.00 0.00 78 1014.1
20260901172027 88 205 1.0 3.0 0.00 0.00 0.00 82 1014.2
20260901171527 87 187 0.0 1.0 0.00 0.00 0.00 83 1014.3
20260901171026 87 145 0.0 6.0 0.00 0.00 0.00 83 1014.2
20260901170525 87 259 1.0 1.0 0.00 0.00 0.00 83 1014.3
20260901170020 87 99 0.0 1.0 0.00 0.00 0.00 83 1014.3
20260901165515 87 278 3.0 5.0 0.00 0.00 0.00 84 1014.4
20260901165010 87 205 1.0 5.0 0.00 0.00 0.00 84 1014.5
20260901164506 86 249 1.0 3.0 0.00 0.00 0.00 84 1014.6
20260901164000 87 292 4.0 5.0 0.00 0.00 0.00 82 1014.6
20260901163456 87 235 3.0 5.0 0.00 0.00 0.00 83 1014.6
20260901162954 87 195 0.0 1.0 0.00 0.00 0.00 83 1014.4
20260901162451 87 195 0.0 2.0 0.00 0.00 0.00 83 1014.4
20260901161949 87 308 2.0 3.0 0.00 0.00 0.00 84 1014.4
20260901161448 87 181 0.0 3.0 0.00 0.00 0.00 85 1014.6
20260901160943 87 223 1.0 5.0 0.00 0.00 0.00 84 1014.8
20260901160440 87 214 0.0 2.0 0.00 0.00 0.00 85 1014.6
20260901155939 87 199 1.0 2.0 0.00 0.00 0.00 84 1014.4
20260901155438 86 6 3.0 5.0 0.00 0.00 0.00 87 1014.7
20260901154935 86 151 0.0 5.0 0.00 0.00 0.00 86 1014.3
20260901154434 86 172 0.0 1.0 0.00 0.00 0.00 86 1014.4
20260901153929 86 230 1.0 2.0 0.00 0.00 0.00 86 1014.6
20260901153424 87 160 1.0 3.0 0.00 0.00 0.00 86 1014.6
20260901152918 87 134 0.0 2.0 0.00 0.00 0.00 85 1014.4
20260901152413 87 131 3.0 7.0 0.00 0.00 0.00 86 1014.5
20260901151913 86 210 2.0 5.0 0.00 0.00 0.00 88 1014.3
20260901151412 85 239 2.0 2.0 0.00 0.00 0.00 89 1014.3
20260901150912 85 112 1.0 3.0 0.00 0.00 0.00 90 1014.5
20260901150410 85 248 3.0 3.0 0.00 0.00 0.00 89 1014.6
20260901145907 84 239 2.0 5.0 0.00 0.00 0.00 89 1014.7
20260901145407 84 201 0.0 5.0 0.00 0.00 0.00 90 1014.6
20260901144902 84 229 2.0 5.0 0.00 0.00 0.00 90 1014.5
20260901144358 83 196 0.0 5.0 0.00 0.00 0.00 92 1014.7
20260901143853 83 199 0.0 1.0 0.00 0.00 0.00 93 1014.7
20260901143349 82 253 0.0 2.0 0.00 0.00 0.00 94 1014.9
20260901142846 82 234 1.0 2.0 0.00 0.00 0.00 95 1014.5
20260901142344 82 214 0.0 1.0 0.00 0.00 0.00 96 1014.6
20260901141839 81 215 0.0 1.0 0.00 0.00 0.00 98 1014.6
20260901141335 81 212 0.0 0.0 0.00 0.00 0.00 99 1014.7
20260901140833 81 224 0.0 1.0 0.00 0.00 0.00 99 1014.9
20260901140332 81 193 0.0 0.0 0.00 0.00 0.00 99 1015.0
20260901135827 80 198 0.0 1.0 0.00 0.00 0.00 99 1014.9
20260901135322 80 206 0.0 1.0 0.00 0.00 0.00 99 1014.7
20260901134818 80 207 0.0 0.0 0.00 0.00 0.00 99 1014.8
20260901134313 79 206 0.0 0.0 0.00 0.00 0.00 99 1014.8
20260901133807 79 204 0.0 0.0 0.00 0.00 0.00 99 1014.9
20260901133306 79 200 0.0 0.0 0.00 0.00 0.00 99 1014.7
20260901132804 79 199 0.0 0.0 0.00 0.00 0.00 99 1014.8
20260901132300 78 198 0.0 0.0 0.00 0.00 0.00 99 1014.7
20260901131754 78 200 0.0 0.0 0.00 0.00 0.00 99 1014.6
20260901131254 78 200 0.0 0.0 0.00 0.00 0.00 99 1014.7
20260901130749 78 224 0.0 0.0 0.00 0.00 0.00 99 1014.6
20260901130249 78 199 0.0 0.0 0.00 0.00 0.00 99 1014.4
20260901125746 78 200 0.0 0.0 0.00 0.00 0.00 99 1014.5
20260901125241 77 216 0.0 1.0 0.00 0.00 0.00 99 1014.3
20260901124736 77 201 0.0 0.0 0.00 0.00 0.00 99 1014.0
20260901124231 77 202 0.0 0.0 0.00 0.00 0.00 99 1014.1
20260901123730 77 200 0.0 1.0 0.00 0.00 0.00 99 1013.9
20260901123225 77 202 0.0 0.0 0.00 0.00 0.00 99 1013.9
20260901122724 76 200 0.0 0.0 0.00 0.00 0.00 99 1014.1
20260901122219 76 199 0.0 0.0 0.00 0.00 0.00 99 1013.8
20260901121713 76 199 0.0 0.0 0.00 0.00 0.00 99 1013.7
20260901121209 76 200 0.0 0.0 0.00 0.00 0.00 99 1013.9
20260901120708 76 200 0.0 0.0 0.00 0.00 0.00 99 1013.5
20260901120203 77 201 0.0 1.0 0.00 0.00 0.00 99 1013.5
20260901115658 77 201 0.0 0.0 0.00 0.00 0.00 99 1013.6
20260901115154 76 201 0.0 0.0 0.00 0.00 0.00 99 1013.7
20260901114651 76 201 0.0 0.0 0.00 0.00 0.00 99 1013.6
20260901114150 76 201 0.0 0.0 0.00 0.00 0.00 99 1013.4
20260901113649 76 201 0.0 0.0 0.00 0.00 0.00 99 1013.6
20260901113145 76 201 0.0 0.0 0.00 0.00 0.00 99 1013.6
20260901112639 77 202 0.0 0.0 0.00 0.00 0.00 99 1013.4
20260901112138 77 201 0.0 0.0 0.00 0.00 0.00 99 1013.8
20260901111638 76 201 0.0 0.0 0.00 0.00 0.00 99 1013.6
20260901111138 76 201 0.0 0.0 0.00 0.00 0.00 99 1013.4
20260901110633 76 201 0.0 0.0 0.00 0.00 0.00 99 1013.4
20260901110128 76 201 0.0 0.0 0.00 0.00 0.00 99 1013.5
20260901105625 76 201 0.0 0.0 0.00 0.00 0.00 99 1013.8
20260901105124 76 201 0.0 0.0 0.00 0.00 0.00 99 1013.5
20260901104620 76 201 0.0 0.0 0.00 0.00 0.00 99 1013.5
20260901104114 76 201 0.0 0.0 0.00 0.00 0.00 99 1013.7
20260901103609 76 201 0.0 0.0 0.00 0.00 0.00 99 1013.3
20260901103105 76 201 0.0 0.0 0.00 0.00 0.00 99 1013.4
20260901102604 77 201 0.0 0.0 0.00 0.00 0.00 99 1013.2
20260901102059 77 201 0.0 0.0 0.00 0.00 0.00 99 1013.3
20260901101555 77 200 0.0 0.0 0.00 0.00 0.00 99 1013.4
20260901101054 77 201 0.0 0.0 0.00 0.00 0.00 99 1013.2
20260901100548 77 200 0.0 0.0 0.00 0.00 0.00 99 1013.2
20260901100048 77 200 0.0 0.0 0.00 0.00 0.00 99 1013.3
20260901095546 77 200 0.0 0.0 0.00 0.00 0.00 99 1013.2
20260901095044 77 200 0.0 0.0 0.00 0.00 0.00 99 1013.4
20260901094539 77 200 0.0 0.0 0.00 0.00 0.00 99 1013.6
20260901094038 77 200 0.0 0.0 0.00 0.00 0.00 99 1013.2
20260901093534 77 200 0.0 0.0 0.00 0.00 0.00 99 1013.5
20260901093028 77 200 0.0 0.0 0.00 0.00 0.00 99 1013.5
20260901092524 77 200 0.0 0.0 0.00 0.00 0.00 99 1013.7
20260901092020 77 200 0.0 0.0 0.00 0.00 0.00 99 1013.5
20260901091516 77 200 0.0 0.0 0.00 0.00 0.00 99 1013.5
20260901091016 77 200 0.0 0.0 0.00 0.00 0.00 99 1013.7
20260901090515 77 200 0.0 0.0 0.00 0.00 0.00 99 1013.4
20260901090011 77 200 0.0 0.0 0.00 0.00 0.00 99 1013.5
20260901085506 77 200 0.0 0.0 0.00 0.00 0.00 99 1013.7
20260901085003 77 200 0.0 0.0 0.00 0.00 0.00 99 1013.6
20260901084459 77 200 0.0 0.0 0.00 0.00 0.00 99 1013.6
20260901083955 77 200 0.0 0.0 0.00 0.00 0.00 99 1013.7
20260901083455 77 200 0.0 0.0 0.00 0.00 0.00 99 1013.7
20260901082953 77 200 0.0 0.0 0.00 0.00 0.00 99 1013.8
20260901082448 77 200 0.0 0.0 0.00 0.00 0.00 99 1013.6
20260901081943 77 200 0.0 0.0 0.00 0.00 0.00 99 1013.7
20260901081437 77 200 0.0 0.0 0.00 0.00 0.00 99 1013.7
20260901080932 77 200 0.0 0.0 0.00 0.00 0.00 99 1013.7
20260901080427 77 200 0.0 0.0 0.00 0.00 0.00 99 1013.8
20260901075926 78 200 0.0 0.0 0.00 0.00 0.00 99 1013.9
20260901075422 77 200 0.0 0.0 0.00 0.00 0.00 99 1014.0
20260901074916 77 200 0.0 0.0 0.00 0.00 0.00 99 1014.0
20260901074411 78 200 0.0 0.0 0.00 0.00 0.00 99 1014.0
20260901073906 78 200 0.0 0.0 0.00 0.00 0.00 99 1014.0
20260901073402 78 200 0.0 0.0 0.00 0.00 0.00 99 1014.0
20260901072858 78 200 0.0 0.0 0.00 0.00 0.00 99 1014.0
20260901072357 78 200 0.0 0.0 0.00 0.00 0.00 99 1014.1
20260901071852 78 200 0.0 0.0 0.00 0.00 0.00 99 1014.0
20260901071351 78 200 0.0 0.0 0.00 0.00 0.00 99 1013.8
20260901070850 78 200 0.0 0.0 0.00 0.00 0.00 99 1014.0
20260901070346 78 200 0.0 0.0 0.00 0.00 0.00 99 1014.0
20260901065845 78 200 0.0 0.0 0.00 0.00 0.00 99 1014.0
20260901065340 78 200 0.0 0.0 0.00 0.00 0.00 99 1014.1
20260901064836 78 200 0.0 1.0 0.00 0.00 0.00 99 1013.9
20260901064332 78 200 0.0 0.0 0.00 0.00 0.00 99 1014.0
20260901063829 78 200 0.0 0.0 0.00 0.00 0.00 99 1014.2
20260901063325 78 200 0.0 0.0 0.00 0.00 0.00 99 1014.0
20260901062821 78 200 0.0 0.0 0.00 0.00 0.00 99 1014.2
20260901062317 78 200 0.0 0.0 0.00 0.00 0.00 99 1014.1
20260901061812 78 200 0.0 0.0 0.00 0.00 0.00 99 1014.4
20260901061307 78 200 0.0 0.0 0.00 0.00 0.00 99 1014.0
20260901060802 78 200 0.0 0.0 0.00 0.00 0.00 99 1014.1
20260901060258 79 200 0.0 0.0 0.00 0.00 0.00 99 1014.3
20260901055752 78 200 0.0 0.0 0.00 0.00 0.00 99 1014.4
20260901055249 79 200 0.0 0.0 0.00 0.00 0.00 99 1014.2
20260901054746 79 200 0.0 0.0 0.00 0.00 0.00 99 1014.1
20260901054242 79 195 0.0 0.0 0.00 0.00 0.00 99 1014.1
20260901053738 79 195 0.0 0.0 0.00 0.00 0.00 99 1014.2
20260901053233 79 195 0.0 0.0 0.00 0.00 0.00 99 1014.0
20260901052728 79 192 0.0 0.0 0.00 0.00 0.00 99 1013.9
20260901052224 79 192 0.0 0.0 0.00 0.00 0.00 99 1013.8
20260901051723 79 192 0.0 0.0 0.00 0.00 0.00 99 1014.0
20260901051223 79 192 0.0 0.0 0.00 0.00 0.00 99 1014.0
20260901050719 80 193 0.0 0.0 0.00 0.00 0.00 99 1013.9
20260901050219 80 192 0.0 0.0 0.00 0.00 0.00 99 1013.9
20260901045714 80 192 0.0 0.0 0.00 0.00 0.00 99 1013.8
20260901045209 80 192 0.0 0.0 0.00 0.00 0.00 99 1013.6
20260901044704 80 192 0.0 0.0 0.00 0.00 0.00 99 1013.5
20260901044201 80 192 0.0 0.0 0.00 0.00 0.00 99 1013.4
20260901043656 80 192 0.0 1.0 0.00 0.00 0.00 98 1013.3
20260901043151 81 192 0.0 0.0 0.00 0.00 0.00 97 1013.5
20260901042650 81 192 0.0 0.0 0.00 0.00 0.00 97 1013.5
20260901042146 81 192 0.0 0.0 0.00 0.00 0.00 96 1013.6
20260901041642 81 192 0.0 0.0 0.00 0.00 0.00 96 1013.5
20260901041136 82 192 0.0 0.0 0.00 0.00 0.00 96 1013.7
20260901040636 82 187 0.0 0.0 0.00 0.00 0.00 95 1013.6
20260901040135 82 182 0.0 0.0 0.00 0.00 0.00 95 1013.5
20260901035634 82 164 1.0 2.0 0.00 0.00 0.00 96 1013.6
20260901035132 81 189 0.0 0.0 0.00 0.00 0.00 97 1013.5
20260901034627 81 184 0.0 0.0 0.00 0.00 0.00 96 1013.4
20260901034121 81 181 0.0 2.0 0.00 0.00 0.00 97 1013.3
20260901033620 81 190 0.0 0.0 0.00 0.00 0.00 97 1013.4
20260901033115 81 190 0.0 0.0 0.00 0.00 0.00 97 1013.3
20260901032613 81 190 0.0 0.0 0.00 0.00 0.00 97 1013.1
20260901032108 81 190 0.0 0.0 0.00 0.00 0.00 96 1013.1
20260901031604 81 190 0.0 0.0 0.00 0.00 0.00 96 1013.1
20260901031100 81 190 0.0 0.0 0.00 0.00 0.00 95 1013.1
20260901030600 82 190 0.0 0.0 0.00 0.00 0.00 94 1013.0
20260901030055 82 190 0.0 0.0 0.00 0.00 0.00 93 1012.9
20260901025554 82 190 0.0 0.0 0.00 0.00 0.00 93 1012.7
20260901025049 83 190 0.0 0.0 0.00 0.00 0.00 92 1012.9
20260901024544 84 190 0.0 0.0 0.00 0.00 0.00 90 1012.8
20260901024042 84 174 0.0 0.0 0.00 0.00 0.00 88 1012.5
20260901023541 84 153 0.0 1.0 0.00 0.00 0.00 88 1012.3
20260901023037 84 164 1.0 2.0 0.00 0.00 0.00 87 1012.5
20260901022532 84 180 0.0 0.0 0.00 0.00 0.00 87 1012.1
20260901022027 85 169 1.0 2.0 0.00 0.00 0.00 87 1012.3
20260901021523 84 173 0.0 0.0 0.00 0.00 0.00 87 1012.1
20260901021018 84 181 0.0 0.0 0.00 0.00 0.00 87 1011.9
20260901020513 84 196 0.0 1.0 0.00 0.00 0.00 87 1012.0
20260901020008 85 191 0.0 3.0 0.00 0.00 0.00 86 1012.0
20260901015504 85 182 0.0 0.0 0.00 0.00 0.00 84 1011.9
20260901015003 85 177 0.0 1.0 0.00 0.00 0.00 83 1011.9
20260901014459 86 174 0.0 2.0 0.00 0.00 0.00 83 1011.9
20260901013954 86 183 0.0 1.0 0.00 0.00 0.00 83 1012.1
20260901013450 86 172 1.0 1.0 0.00 0.00 0.00 82 1011.9
20260901012946 86 179 0.0 2.0 0.00 0.00 0.00 81 1012.2
20260901012445 86 166 1.0 2.0 0.00 0.00 0.00 81 1011.9
20260901011941 86 173 1.0 1.0 0.00 0.00 0.00 80 1012.2
20260901011437 86 190 0.0 0.0 0.00 0.00 0.00 80 1012.0
20260901010935 87 184 1.0 2.0 0.00 0.00 0.00 78 1011.9
20260901010430 87 177 0.0 2.0 0.00 0.00 0.00 78 1012.1
20260901005929 87 154 4.0 6.0 0.00 0.00 0.00 78 1012.1
20260901005424 87 194 2.0 5.0 0.00 0.00 0.00 77 1011.9
20260901004919 87 170 2.0 3.0 0.00 0.00 0.00 77 1011.9
20260901004418 88 168 1.0 3.0 0.00 0.00 0.00 77 1011.8
20260901003914 88 167 1.0 7.0 0.00 0.00 0.00 77 1011.7
20260901003409 88 142 4.0 6.0 0.00 0.00 0.00 77 1011.7
20260901002907 88 180 3.0 6.0 0.00 0.00 0.00 77 1012.0
20260901002407 89 207 1.0 2.0 0.00 0.00 0.00 76 1011.8
20260901001901 89 172 4.0 6.0 0.00 0.00 0.00 76 1011.8
20260901001356 89 174 1.0 1.0 0.00 0.00 0.00 76 1011.8
20260901000852 89 171 2.0 7.0 0.00 0.00 0.00 76 1011.9
20260901000347 89 163 1.0 6.0 0.00 0.00 0.00 76 1011.8
20260831235845 89 162 1.0 2.0 0.00 0.00 0.00 75 1011.9
20260831235342 89 162 1.0 1.0 0.00 0.00 0.00 76 1011.8
20260831234837 89 179 0.0 2.0 0.00 0.00 0.00 76 1011.8
20260831234337 89 148 1.0 3.0 0.00 0.00 0.00 76 1011.9
20260831233832 90 169 1.0 2.0 0.00 0.00 0.00 76 1011.9
20260831233327 90 156 2.0 3.0 0.00 0.00 0.00 75 1011.9
20260831232822 90 143 2.0 6.0 0.00 0.00 0.00 75 1011.8
20260831232319 91 208 3.0 3.0 0.00 0.00 0.00 74 1011.7
20260831231814 92 140 2.0 5.0 0.00 0.00 0.00 68 1011.8
20260831231311 93 135 3.0 8.0 0.00 0.00 0.00 63 1011.7
20260831230805 93 192 0.0 5.0 0.00 0.00 0.00 63 1011.6
20260831230301 94 194 3.0 5.0 0.00 0.00 0.00 61 1011.5
20260831225800 95 186 1.0 5.0 0.00 0.00 0.00 62 1011.6
20260831225255 94 173 0.0 2.0 0.00 0.00 0.00 61 1011.7
20260831224750 95 187 0.0 8.0 0.00 0.00 0.00 62 1011.6
20260831224246 95 119 5.0 6.0 0.00 0.00 0.00 60 1011.7
20260831223740 95 181 2.0 6.0 0.00 0.00 0.00 61 1012.0
20260831223237 94 155 1.0 5.0 0.00 0.00 0.00 62 1011.9